TimeCST,TemperatureF,Dew PointF,Humidity,Sea Level PressureIn,VisibilityMPH,Wind Direction,Wind SpeedMPH,Gust SpeedMPH,PrecipitationIn,Events,Conditions,WindDirDegrees,DateUTC
12:15 AM,30.2,28.4,93,29.81,1.0,North,25.3,32.2,N/A,,Overcast,360,2013-02-25 06:15:00
12:35 AM,30.2,30.2,100,29.82,1.5,North,20.7,31.1,N/A,,Overcast,360,2013-02-25 06:35:00
12:55 AM,30.2,30.2,100,29.83,2.5,North,18.4,27.6,N/A,,Overcast,10,2013-02-25 06:55:00
1:15 AM,30.2,30.2,100,29.83,1.8,North,24.2,-,N/A,,Overcast,360,2013-02-25 07:15:00
1:35 AM,30.2,30.2,100,29.82,0.8,North,24.2,32.2,N/A,,Overcast,360,2013-02-25 07:35:00
1:55 AM,30.2,30.2,100,29.80,1.0,North,26.5,33.4,N/A,,Overcast,360,2013-02-25 07:55:00
2:15 AM,30.2,30.2,100,29.80,0.8,North,24.2,34.5,N/A,,Overcast,360,2013-02-25 08:15:00
2:35 AM,30.2,30.2,100,29.80,1.0,North,28.8,35.7,N/A,,Overcast,360,2013-02-25 08:35:00
2:55 AM,30.2,30.2,100,29.81,1.2,North,27.6,33.4,N/A,,Overcast,360,2013-02-25 08:55:00
3:15 AM,30.2,30.2,100,29.79,1.5,North,28.8,35.7,N/A,,Overcast,360,2013-02-25 09:15:00
3:35 AM,30.2,28.4,93,29.78,-9999.0,North,28.8,35.7,N/A,,Overcast,360,2013-02-25 09:35:00
4:15 AM,30.2,28.4,93,29.78,-9999.0,North,32.2,40.3,N/A,,Overcast,360,2013-02-25 10:15:00
4:35 AM,30.2,28.4,93,29.78,-9999.0,North,28.8,36.8,N/A,,Overcast,360,2013-02-25 10:35:00
4:55 AM,30.2,28.4,93,29.78,-9999.0,North,31.1,39.1,N/A,,Overcast,360,2013-02-25 10:55:00
5:15 AM,30.2,28.4,93,29.76,-9999.0,North,33.4,42.6,N/A,,Overcast,360,2013-02-25 11:15:00
5:35 AM,30.2,28.4,93,29.76,-9999.0,North,35.7,42.6,N/A,,Overcast,360,2013-02-25 11:35:00
5:55 AM,30.2,28.4,93,29.76,-9999.0,North,36.8,47.2,N/A,,Overcast,360,2013-02-25 11:55:00
6:15 AM,30.2,28.4,93,29.77,-9999.0,North,34.5,41.4,N/A,,Overcast,360,2013-02-25 12:15:00
6:35 AM,30.2,28.4,93,29.77,-9999.0,North,33.4,39.1,N/A,,Overcast,360,2013-02-25 12:35:00
6:55 AM,30.2,28.4,93,29.76,-9999.0,North,35.7,41.4,N/A,,Overcast,360,2013-02-25 12:55:00
7:15 AM,30.2,28.4,93,29.76,-9999.0,North,34.5,42.6,N/A,,Overcast,360,2013-02-25 13:15:00
7:35 AM,30.2,28.4,93,29.76,-9999.0,North,36.8,44.9,N/A,,Overcast,360,2013-02-25 13:35:00
7:55 AM,30.2,28.4,93,29.76,-9999.0,North,34.5,41.4,N/A,,Overcast,360,2013-02-25 13:55:00
8:15 AM,30.2,28.4,93,29.76,-9999.0,North,40.3,47.2,N/A,,Overcast,360,2013-02-25 14:15:00
8:35 AM,30.2,28.4,93,29.77,-9999.0,North,36.8,44.9,N/A,,Overcast,360,2013-02-25 14:35:00
8:55 AM,30.2,28.4,93,29.77,-9999.0,North,40.3,48.3,N/A,,Overcast,360,2013-02-25 14:55:00
9:15 AM,30.2,28.4,93,29.78,-9999.0,North,40.3,44.9,N/A,,Overcast,360,2013-02-25 15:15:00
9:55 AM,30.2,28.4,93,29.79,-9999.0,North,34.5,42.6,N/A,,Overcast,360,2013-02-25 15:55:00
10:15 AM,30.2,28.4,93,29.80,-9999.0,North,36.8,42.6,N/A,,Overcast,360,2013-02-25 16:15:00
10:35 AM,30.2,28.4,93,29.80,-9999.0,North,39.1,44.9,N/A,,Overcast,360,2013-02-25 16:35:00
10:55 AM,30.2,28.4,93,29.80,-9999.0,North,35.7,47.2,N/A,,Overcast,360,2013-02-25 16:55:00
11:15 AM,30.2,28.4,93,29.81,-9999.0,North,35.7,43.7,N/A,,Overcast,350,2013-02-25 17:15:00
11:35 AM,30.2,28.4,93,29.82,-9999.0,North,36.8,44.9,N/A,,Overcast,360,2013-02-25 17:35:00
11:55 AM,30.2,28.4,93,29.82,-9999.0,North,39.1,44.9,N/A,,Overcast,360,2013-02-25 17:55:00
12:15 PM,30.2,28.4,93,29.82,-9999.0,North,38.0,44.9,N/A,,Overcast,350,2013-02-25 18:15:00
12:35 PM,30.2,28.4,93,29.81,-9999.0,North,41.4,47.2,N/A,,Overcast,360,2013-02-25 18:35:00
12:55 PM,30.2,28.4,93,29.80,-9999.0,North,40.3,47.2,N/A,,Overcast,350,2013-02-25 18:55:00
1:15 PM,32.0,30.2,93,29.79,-9999.0,North,41.4,50.6,N/A,,Overcast,350,2013-02-25 19:15:00
1:35 PM,32.0,30.2,93,29.78,-9999.0,North,46.0,54.1,N/A,,Overcast,350,2013-02-25 19:35:00
1:55 PM,32.0,30.2,93,29.78,-9999.0,North,44.9,51.8,N/A,,Overcast,360,2013-02-25 19:55:00
2:15 PM,32.0,30.2,93,29.79,-9999.0,North,35.7,47.2,N/A,,Overcast,360,2013-02-25 20:15:00
2:35 PM,32.0,30.2,93,29.79,-9999.0,North,36.8,44.9,N/A,,Overcast,350,2013-02-25 20:35:00
2:55 PM,32.0,30.2,93,29.79,-9999.0,North,34.5,47.2,N/A,,Unknown,350,2013-02-25 20:55:00
3:15 PM,32.0,30.2,93,29.79,-9999.0,North,34.5,43.7,N/A,,Unknown,350,2013-02-25 21:15:00
3:35 PM,32.0,30.2,93,29.79,-9999.0,North,35.7,43.7,N/A,,Overcast,350,2013-02-25 21:35:00
3:55 PM,32.0,32.0,100,29.79,-9999.0,North,29.9,40.3,N/A,,Overcast,350,2013-02-25 21:55:00
4:15 PM,32.0,32.0,100,29.80,-9999.0,North,32.2,38.0,N/A,,Unknown,350,2013-02-25 22:15:00
4:35 PM,32.0,30.2,93,29.80,-9999.0,North,31.1,36.8,0.01,,Unknown,350,2013-02-25 22:35:00
4:55 PM,32.0,30.2,93,29.81,-9999.0,North,29.9,36.8,0.01,,Overcast,350,2013-02-25 22:55:00
5:15 PM,32.0,30.2,93,29.81,-9999.0,North,31.1,36.8,N/A,,Overcast,350,2013-02-25 23:15:00
5:35 PM,32.0,30.2,93,29.81,-9999.0,North,28.8,-,N/A,,Overcast,350,2013-02-25 23:35:00
5:55 PM,32.0,30.2,93,29.82,-9999.0,North,32.2,35.7,N/A,,Overcast,350,2013-02-25 23:55:00
6:15 PM,32.0,30.2,93,29.83,-9999.0,North,27.6,34.5,N/A,,Overcast,350,2013-02-26 00:15:00
6:35 PM,32.0,30.2,93,29.83,-9999.0,North,27.6,34.5,N/A,,Overcast,350,2013-02-26 00:35:00
6:55 PM,32.0,28.4,87,29.84,-9999.0,North,27.6,32.2,N/A,,Overcast,350,2013-02-26 00:55:00
7:15 PM,32.0,28.4,87,29.85,-9999.0,North,24.2,-,N/A,,Overcast,350,2013-02-26 01:15:00
7:35 PM,32.0,28.4,87,29.85,-9999.0,North,24.2,29.9,N/A,,Overcast,350,2013-02-26 01:35:00
7:55 PM,32.0,28.4,87,29.85,-9999.0,North,19.6,-,N/A,,Overcast,350,2013-02-26 01:55:00
8:15 PM,32.0,28.4,87,29.85,-9999.0,North,23.0,27.6,N/A,,Overcast,350,2013-02-26 02:15:00
8:35 PM,32.0,28.4,87,29.86,-9999.0,North,20.7,-,N/A,,Unknown,350,2013-02-26 02:35:00
8:55 PM,32.0,28.4,87,29.85,-9999.0,North,18.4,-,N/A,,Unknown,360,2013-02-26 02:55:00
9:15 PM,30.2,28.4,93,29.85,10.0,North,19.6,24.2,N/A,,Overcast,360,2013-02-26 03:15:00
9:55 PM,30.2,28.4,93,29.85,10.0,North,18.4,-,N/A,,Overcast,350,2013-02-26 03:55:00
10:35 PM,28.4,23.0,80,29.86,10.0,NNW,16.1,-,N/A,,Scattered Clouds,330,2013-02-26 04:35:00
10:55 PM,26.6,23.0,86,29.86,10.0,NNW,16.1,-,N/A,,Clear,330,2013-02-26 04:55:00
11:15 PM,26.6,23.0,86,29.86,10.0,NNW,15.0,-,N/A,,Clear,330,2013-02-26 05:15:00
11:35 PM,24.8,21.2,86,29.85,10.0,NNW,16.1,-,N/A,,Clear,330,2013-02-26 05:35:00
11:55 PM,24.8,21.2,86,29.87,10.0,NW,13.8,-,N/A,,Mostly Cloudy,310,2013-02-26 05:55:00